User: anonymous   Login
Location: Elmsmere
(40.9284°N, 73.8207°W)
Time: 22:03:58
(UTC+00:00)
Language:

CSL-04 Rocket - Orbit

View from above orbital plane
View from above orbital plane
View from above satellite
View from above satellite

Ground track
Ground track

The orbit data is extracted from the following two-line orbital elements,

1 25732U 99025C   21016.55713998 -.00000037  00000-0  42121-5 0  9997
2 25732  98.9224  52.5199 0036721 324.3081 158.1676 14.17687085122013
Epoch (UTC): 16 January 2021 13:22:16
Eccentricity: 0.0036721
inclination: 98.9224°
perigee height: 807 km
apogee height: 859 km
right ascension of ascending node: 52.5199°
argument of perigee: 324.3081°
revolutions per day: 14.17687085
mean anomaly at epoch: 158.1676°
orbit number at epoch: 12201

The dashed part of the orbit path shows where the satellite is in the earth's shadow,  

DLR